"2009-07-13 00:00:00",1057251,7.435,228.9,2.433,0.197,21.58,109.8359,24.47,25.61,34.37,0,111.3,13.12,25.31,190.9
"2009-07-13 00:00:30",1057252,6.967,233.2,3.617,0.283,21.57,109.8297,24.46,25.56,34.48,0,111.3,13.12,25.29,195.2
"2009-07-13 00:01:00",1057253,6.868,235.7,2.839,0.217,21.45,109.8081,24.4,25.54,36.07,0,111.3,13.12,25.24,197.7
"2009-07-13 00:01:30",1057254,7.27,234,2.374,0.25,21.58,109.798,24.38,25.5,35.03,0,111.3,13.12,25.21,196.0
"2009-07-13 00:02:00",1057255,7.545,236.3,1.334,0.358,21.48,109.786,24.34,25.47,34.81,0,111.3,13.12,25.18,198.3
"2009-07-13 00:02:30",1057256,7.477,233,1.832,0.223,21.57,109.7727,24.31,25.42,33.83,0,111.3,13.12,25.15,195.0
"2009-07-13 00:03:00",1057257,7.581,235.5,3.132,0.206,21.54,109.7718,24.31,25.39,33.24,0,111.2,13.12,25.14,197.5
"2009-07-13 00:03:30",1057258,7.37,234.4,1.384,0.171,21.55,109.7634,24.29,25.37,33.11,0,111.2,13.12,25.12,196.4
"2009-07-13 00:04:00",1057259,7.442,235.2,1.839,0.207,21.49,109.75,24.25,25.34,33.17,0,111.2,13.12,25.09,197.2
"2009-07-13 00:04:30",1057260,7.62,238.6,1.222,0.172,21.37,109.7553,24.27,25.31,32.91,0,111.2,13.12,25.10,200.6
"2009-07-13 00:05:00",1057261,7.663,239.2,2.437,0.253,21.35,109.7465,24.24,25.28,32.46,0,111.2,13.12,25.08,201.2
"2009-07-13 00:05:30",1057262,8.32,237.5,1.333,0.145,21.29,109.7303,24.2,25.26,34.54,0,111.2,13.12,25.04,199.5
"2009-07-13 00:06:00",1057263,8.16,240,1.772,0.215,21.29,109.7253,24.19,25.25,34.55,0,111.2,13.12,25.03,202.0
"2009-07-13 00:06:30",1057264,7.733,236,1.149,0.15,21.57,109.725,24.19,25.23,32.3,0,111.2,13.12,25.02,198.0
"2009-07-13 00:07:00",1057265,7.744,235.2,1.165,0.206,21.54,109.7246,24.19,25.2,32.08,0,111.2,13.12,25.02,197.2
"2009-07-13 00:07:30",1057266,8.42,240.9,2.045,0.286,21.32,109.7133,24.16,25.18,32.44,0,111.2,13.12,24.99,202.9
"2009-07-13 00:08:00",1057267,8.23,241.2,0.944,0.215,21.36,109.7064,24.14,25.17,33,0,111.2,13.12,24.98,203.2
"2009-07-13 00:08:30",1057268,9.08,244.6,2.577,0.334,21.38,109.7007,24.13,25.15,33.83,0,111.2,13.12,24.96,206.6
"2009-07-13 00:09:00",1057269,8.44,244.1,5.092,0.436,21.55,109.6993,24.12,25.13,34.11,0,111.2,13.12,24.96,206.1
"2009-07-13 00:09:30",1057270,8.73,245.7,2.422,0.359,21.4,109.6977,24.12,25.11,33.85,0,111.2,13.13,24.95,207.7
"2009-07-13 00:10:00",1057271,8.96,243,2.062,0.284,21.37,109.682,24.08,25.1,34.9,0,111.2,13.13,24.91,205.0
"2009-07-13 00:10:30",1057272,9.2,243.3,1.908,0.511,21.32,109.671,24.05,25.09,35.08,0,111.2,13.13,24.89,205.3
"2009-07-13 00:11:00",1057273,8.15,237.7,1.369,0.275,21.56,109.6665,24.04,25.1,33.49,0,111.2,13.12,24.87,199.7
"2009-07-13 00:11:30",1057274,8.18,236.5,1.591,0.231,21.7,109.6665,24.04,25.07,32.07,0,111.2,13.12,24.87,198.5
"2009-07-13 00:12:00",1057275,7.885,235.3,1.67,0.266,21.63,109.6584,24.02,25.04,32.69,0,111.2,13.12,24.85,197.3
"2009-07-13 00:12:30",1057276,7.669,234.3,2.297,0.256,22.08,109.6419,23.97,25.03,31.01,0,111.2,13.12,24.81,196.3
"2009-07-13 00:13:00",1057277,6.78,230.1,2.358,0.246,22.26,109.641,23.97,25.01,29.7,0,111.2,13.12,24.81,192.1
"2009-07-13 00:13:30",1057278,6.613,232.2,1.089,0.277,22.21,109.639,23.97,24.99,28.97,0,111.2,13.12,24.80,194.2
"2009-07-13 00:14:00",1057279,7.029,230.4,1.635,0.277,22.15,109.6416,23.97,25,29.16,0,111.2,13.12,24.81,192.4
"2009-07-13 00:14:30",1057280,8.54,236.7,3.907,0.622,21.47,109.6416,23.97,24.98,31.72,0,111.2,13.12,24.81,198.7
"2009-07-13 00:15:00",1057281,8.16,234.7,2.694,0.348,21.57,109.6458,23.98,25,32.82,0,111.2,13.12,24.82,196.7
"2009-07-13 00:15:30",1057282,8.04,235.7,3.529,0.452,21.67,109.6568,24.01,25,31.8,0,111.2,13.12,24.85,197.7
"2009-07-13 00:16:00",1057283,8.78,241,2.015,0.302,21.44,109.6673,24.04,25.01,34.1,0,111.2,13.12,24.88,203.0
"2009-07-13 00:16:30",1057284,8.99,242.1,1.853,0.587,21.46,109.6721,24.05,25.01,35.31,0,111.2,13.13,24.89,204.1
"2009-07-13 00:17:00",1057285,8.86,243.9,2.17,0.463,21.44,109.6721,24.05,25.02,35.45,0,111.2,13.13,24.89,205.9
"2009-07-13 00:17:30",1057286,9.43,246.5,1.85,0.266,21.51,109.675,24.06,25.04,34.15,0,111.2,13.13,24.90,208.5
"2009-07-13 00:18:00",1057287,9.26,243.8,1.806,0.314,21.5,109.6721,24.05,25.03,35.66,0,111.2,13.13,24.89,205.8
"2009-07-13 00:18:30",1057288,9.51,245.6,2.018,0.352,21.56,109.6665,24.04,25.02,35.57,0,111.2,13.13,24.87,207.6
"2009-07-13 00:19:00",1057289,9.28,244.6,1.274,0.275,21.6,109.6617,24.03,25.03,34.22,0,111.2,13.13,24.86,206.6
"2009-07-13 00:19:30",1057290,9.22,246.7,1.312,0.248,21.57,109.6605,24.02,25.02,35.11,0,111.1,13.13,24.86,208.7
"2009-07-13 00:20:00",1057291,9.46,246.4,1.631,0.353,21.51,109.6606,24.02,25.02,36.16,0,111.1,13.13,24.86,208.4
"2009-07-13 00:20:30",1057292,9.03,243.9,1.843,0.129,21.68,109.6583,24.02,25,33.33,0,111.1,13.13,24.85,205.9
"2009-07-13 00:21:00",1057293,9.33,242.7,1.265,0.245,21.65,109.6426,23.98,24.99,32.68,0,111.1,13.13,24.81,204.7
"2009-07-13 00:21:30",1057294,9.75,242.8,2.084,0.19,21.44,109.634,23.95,24.98,34.93,0,111.1,13.13,24.79,204.8
"2009-07-13 00:22:00",1057295,9.5,244.7,1.209,0.195,21.41,109.6306,23.95,24.97,35.76,0,111.1,13.13,24.78,206.7
"2009-07-13 00:22:30",1057296,9.32,249.7,2.515,0.677,21.22,109.6286,23.94,24.96,37.36,0,111.1,13.13,24.78,211.7
"2009-07-13 00:23:00",1057297,8.9,250.1,3.155,0.471,21.18,109.6174,23.91,24.94,38.11,0,111.1,13.13,24.75,212.1
"2009-07-13 00:23:30",1057298,9.11,249.9,2.036,0.504,21.03,109.6072,23.89,24.94,38.67,0,111.1,13.13,24.72,211.9
"2009-07-13 00:24:00",1057299,8.95,251.9,2.176,0.241,21.03,109.5999,23.87,24.91,38.72,0,111.1,13.14,24.70,213.9
"2009-07-13 00:24:30",1057300,9.19,248,1.37,0.367,20.97,109.576,23.81,24.89,38.28,0,111.1,13.14,24.64,210.0
"2009-07-13 00:25:00",1057301,9.59,242.2,3.08,0.279,21.06,109.5673,23.78,24.86,38.27,0,111.1,13.14,24.62,204.2
"2009-07-13 00:25:30",1057302,9.34,240,0.813,0.113,21.25,109.5404,23.71,24.83,37.88,0,111.1,13.14,24.55,202.0
"2009-07-13 00:26:00",1057303,9.07,235.6,1.308,0.113,21.6,109.5289,23.68,24.79,36.59,0,111.1,13.14,24.52,197.6
"2009-07-13 00:26:30",1057304,8.79,234.5,0.84,0.129,21.64,109.505,23.62,24.75,35.92,0,111.1,13.14,24.46,196.5
"2009-07-13 00:27:00",1057305,8.41,234.7,0.813,0.136,21.75,109.5005,23.61,24.72,34.52,0,111.1,13.14,24.45,196.7
"2009-07-13 00:27:30",1057306,8.6,235.4,0.657,0.131,21.6,109.4932,23.59,24.69,34.51,0,111.1,13.14,24.43,197.4
"2009-07-13 00:28:00",1057307,8.68,234.8,0.979,0.05,21.71,109.4752,23.55,24.66,33.43,0,111.1,13.14,24.38,196.8
"2009-07-13 00:28:30",1057308,9,231.7,1.134,0.173,21.84,109.4693,23.53,24.61,32.06,0,111.1,13.14,24.37,193.7
"2009-07-13 00:29:00",1057309,9.27,228.5,0.449,0.042,21.98,109.4677,23.53,24.61,31.13,0,111.1,13.14,24.36,190.5
"2009-07-13 00:29:30",1057310,9.17,228.2,0.262,0.103,21.96,109.4679,23.53,24.58,30.79,0,111.1,13.14,24.36,190.2
"2009-07-13 00:30:00",1057311,9.32,228.6,0.636,0.126,21.72,109.4689,23.53,24.58,31.25,0,111.1,13.14,24.36,190.6
"2009-07-13 00:30:30",1057312,10.47,235,3.154,0.362,21.36,109.4743,23.54,24.59,32.22,0,111.1,13.14,24.38,197.0
"2009-07-13 00:31:00",1057313,10.97,236.4,3.127,0.389,21.27,109.4859,23.57,24.58,32.81,0,111.1,13.14,24.41,198.4
"2009-07-13 00:31:30",1057314,11.44,236.8,1.9,0.132,21.22,109.4924,23.59,24.59,32.95,0,111.1,13.14,24.42,198.8
"2009-07-13 00:32:00",1057315,12.41,234.4,1.117,0.43,21.25,109.4982,23.61,24.59,32.97,0,111.1,13.14,24.44,196.4
"2009-07-13 00:32:30",1057316,11.88,232.2,1.274,0.241,21.33,109.5016,23.61,24.6,33,0,111.1,13.14,24.45,194.2
"2009-07-13 00:33:00",1057317,12.63,233.9,1.491,0.342,21.35,109.4989,23.61,24.59,33,0,111.1,13.14,24.44,195.9
"2009-07-13 00:33:30",1057318,12.92,234,1.261,0.252,21.4,109.4953,23.6,24.59,33.03,0,111.1,13.14,24.43,196.0
"2009-07-13 00:34:00",1057319,13.38,234.9,0.884,0.224,21.36,109.4953,23.6,24.58,32.73,0,111.1,13.15,24.43,196.9
"2009-07-13 00:34:30",1057320,13.47,235.5,1.133,0.271,21.28,109.495,23.6,24.57,32.78,0,111.1,13.15,24.43,197.5
"2009-07-13 00:35:00",1057321,13.2,235.9,2.396,0.287,21.41,109.4928,23.59,24.56,32.7,0,111.1,13.15,24.43,197.9
"2009-07-13 00:35:30",1057322,13.65,235.5,1.392,0.36,21.23,109.4794,23.56,24.56,33.13,0,111.1,13.15,24.39,197.5
"2009-07-13 00:36:00",1057323,14.14,236.2,1.279,0.435,21.16,109.4719,23.54,24.54,33.37,0,111.1,13.15,24.37,198.2
"2009-07-13 00:36:30",1057324,14.19,238,1.528,0.479,21.14,109.4696,23.53,24.52,33.29,0,111.1,13.15,24.37,200.0
"2009-07-13 00:37:00",1057325,14.45,240,1.35,0.224,20.95,109.47,23.53,24.51,34.85,0,111.1,13.15,24.37,202.0
"2009-07-13 00:37:30",1057326,14.22,239.6,1.613,0.472,20.93,109.443,23.46,24.48,35.96,0,111.1,13.15,24.30,201.6
"2009-07-13 00:38:00",1057327,13.27,238.2,2.42,0.442,20.93,109.4371,23.45,24.47,36.8,0,111.1,13.15,24.28,200.2
"2009-07-13 00:38:30",1057328,14.39,239.1,2.519,0.426,20.81,109.4116,23.38,24.45,37.48,0,111.1,13.15,24.22,201.1
"2009-07-13 00:39:00",1057329,14.25,242.2,1.578,0.202,20.82,109.3967,23.34,24.43,37.25,0,111.1,13.15,24.18,204.2
"2009-07-13 00:39:30",1057330,14.38,244.6,2.694,0.382,20.76,109.3711,23.28,24.37,38.39,0,111.1,13.15,24.11,206.6
"2009-07-13 00:40:00",1057331,12.88,244.1,3.559,1.519,20.83,109.3453,23.21,24.35,39.27,0,111.1,13.15,24.05,206.1
"2009-07-13 00:40:30",1057332,12.63,241.7,3.318,0.759,20.75,109.3287,23.17,24.29,39.91,0,111.1,13.15,24.00,203.7
"2009-07-13 00:41:00",1057333,13.8,243.1,2.45,0.945,20.48,109.3034,23.11,24.25,41.56,0,111.1,13.15,23.94,205.1
"2009-07-13 00:41:30",1057334,15.62,243.9,1.681,0.265,20.24,109.2745,23.03,24.2,42.38,0,111.1,13.15,23.86,205.9
"2009-07-13 00:42:00",1057335,16.34,243.4,1.15,0.896,20.26,109.2459,22.96,24.13,42.94,0,111.1,13.15,23.79,205.4
"2009-07-13 00:42:30",1057336,16.9,243.1,1.171,0.303,20.32,109.2099,22.87,24.08,42.25,0,111.1,13.15,23.70,205.1
"2009-07-13 00:43:00",1057337,16.64,244.4,1.288,0.32,20.5,109.1728,22.77,24,40.98,0,111.1,13.15,23.60,206.4
"2009-07-13 00:43:30",1057338,16.83,244.4,1.16,0.212,20.52,109.133,22.67,23.93,40.64,0,111.1,13.15,23.50,206.4
"2009-07-13 00:44:00",1057339,16.66,244.8,0.781,0.208,20.46,109.1012,22.59,23.84,40.88,0,111.1,13.16,23.42,206.8
"2009-07-13 00:44:30",1057340,16.4,245.5,0.771,0.268,20.54,109.0708,22.51,23.77,40.74,0,111.1,13.16,23.34,207.5
"2009-07-13 00:45:00",1057341,16.44,247.4,1.442,0.354,20.52,109.0493,22.45,23.71,40.77,0,111,13.16,23.28,209.4
"2009-07-13 00:45:30",1057342,16.21,247.6,0.974,0.097,20.57,109.0254,22.39,23.64,40.45,0,111,13.15,23.22,209.6
"2009-07-13 00:46:00",1057343,16.07,246.7,0.939,0.135,20.54,109.0166,22.37,23.56,40.71,0,111,13.15,23.20,208.7
"2009-07-13 00:46:30",1057344,16.11,246.2,1.215,0.407,20.62,108.9945,22.31,23.5,40.79,0,111,13.15,23.14,208.2
"2009-07-13 00:47:00",1057345,16.15,246.4,0.62,0.207,20.58,108.9895,22.3,23.45,40.63,0,111,13.15,23.13,208.4
"2009-07-13 00:47:30",1057346,16.38,246,0.865,0.187,20.56,108.9641,22.23,23.39,41.38,0,111,13.15,23.06,208.0
"2009-07-13 00:48:00",1057347,16.52,245.7,0.598,0.266,20.64,108.9591,22.22,23.36,40.96,0,111,13.15,23.05,207.7
"2009-07-13 00:48:30",1057348,15.59,244.5,1.282,0.439,20.65,108.9448,22.18,23.3,41.18,0,111,13.15,23.01,206.5
"2009-07-13 00:49:00",1057349,15.4,245.4,2.261,0.407,20.61,108.9303,22.15,23.27,41.48,0,111,13.15,22.98,207.4
"2009-07-13 00:49:30",1057350,15.61,244.7,0.462,0.236,20.61,108.9291,22.14,23.23,42.11,0,111,13.15,22.97,206.7
"2009-07-13 00:50:00",1057351,15.85,244.4,0.775,0.249,20.75,108.9323,22.15,23.21,41.16,0,111,13.15,22.98,206.4
"2009-07-13 00:50:30",1057352,15.38,244.7,0.928,0.145,20.69,108.9155,22.11,23.19,41.13,0,111,13.16,22.94,206.7
"2009-07-13 00:51:00",1057353,15.3,245.7,0.805,0.2,20.66,108.9082,22.09,23.16,41.29,0,111,13.16,22.92,207.7
"2009-07-13 00:51:30",1057354,15.53,246.4,1.212,0.249,20.38,108.9034,22.08,23.14,42.54,0,111,13.16,22.91,208.4
"2009-07-13 00:52:00",1057355,15.84,247.2,0.831,0.208,20.59,108.9009,22.07,23.14,42.37,0,111,13.16,22.90,209.2
"2009-07-13 00:52:30",1057356,15.07,247.1,1.959,0.411,20.58,108.9009,22.07,23.11,42.26,0,111,13.16,22.90,209.1
"2009-07-13 00:53:00",1057357,15.11,246.1,1.349,0.376,20.73,108.8964,22.06,23.09,42.7,0,111,13.16,22.89,208.1
"2009-07-13 00:53:30",1057358,15.45,245.9,1.794,0.407,20.71,108.8888,22.04,23.07,42.03,0,111,13.16,22.87,207.9
"2009-07-13 00:54:00",1057359,15.78,245.6,0.95,0.261,20.85,108.8812,22.02,23.07,41.24,0,111,13.16,22.85,207.6
"2009-07-13 00:54:30",1057360,14.99,246.5,1.557,0.52,21.04,108.8807,22.02,23.05,40.16,0,111,13.16,22.85,208.5
"2009-07-13 00:55:00",1057361,15.38,245.6,1.1,0.694,21.01,108.886,22.03,23.04,40.09,0,111,13.16,22.86,207.6
"2009-07-13 00:55:30",1057362,15.69,245,1.015,0.189,21.03,108.8954,22.06,23.04,39.55,0,111,13.16,22.89,207.0
"2009-07-13 00:56:00",1057363,15.99,244.9,0.889,0.3,20.9,108.9039,22.08,23.05,39.94,0,111,13.17,22.91,206.9
"2009-07-13 00:56:30",1057364,15.84,244.4,1.196,0.262,20.91,108.9053,22.08,23.07,39.65,0,111,13.17,22.91,206.4
"2009-07-13 00:57:00",1057365,15.83,244.7,0.749,0.157,20.96,108.9247,22.13,23.07,39.61,0,111,13.17,22.96,206.7
"2009-07-13 00:57:30",1057366,15.66,243.8,0.933,0.285,21.03,108.9413,22.18,23.07,39.33,0,111,13.17,23.00,205.8
"2009-07-13 00:58:00",1057367,15.55,245.3,0.709,0.162,20.94,108.9475,22.19,23.09,39.63,0,111,13.17,23.02,207.3
"2009-07-13 00:58:30",1057368,15.53,244.2,0.83,0.167,20.95,108.9637,22.23,23.13,39.54,0,111,13.17,23.06,206.2
"2009-07-13 00:59:00",1057369,15.14,244.5,0.332,0.213,20.84,108.9839,22.28,23.16,39.74,0,111,13.17,23.11,206.5
"2009-07-13 00:59:30",1057370,14.77,244.7,0.566,0.139,20.69,108.9879,22.3,23.17,39.82,0,111,13.17,23.12,206.7
"2009-07-13 01:00:00",1057371,14.36,245.8,1.57,0.283,20.4,108.9937,22.31,23.2,40.07,0,111,13.17,23.14,207.8
"2009-07-13 01:00:30",1057372,13.24,248.5,1.673,0.68,19.98,108.9954,22.31,23.22,41.87,0,111,13.17,23.14,210.5
"2009-07-13 01:01:00",1057373,14.12,247.8,1.545,0.495,20.47,108.9943,22.31,23.24,41.23,0,111,13.17,23.14,209.8
"2009-07-13 01:01:30",1057374,14.35,247.3,1.886,0.574,20.44,108.9934,22.31,23.23,41.07,0,111,13.17,23.14,209.3
"2009-07-13 01:02:00",1057375,15.13,246.9,1.5,0.281,20.55,108.9913,22.3,23.23,40.25,0,111,13.17,23.13,208.9
"2009-07-13 01:02:30",1057376,15.17,244.9,0.505,0.257,21.02,108.9725,22.26,23.22,39.09,0,111,13.17,23.09,206.9
"2009-07-13 01:03:00",1057377,15.82,244.8,0.467,0.198,20.9,108.9683,22.24,23.21,38.81,0,111,13.17,23.07,206.8
"2009-07-13 01:03:30",1057378,15.94,244.7,0.515,0.234,20.87,108.9647,22.24,23.2,38.57,0,111,13.17,23.07,206.7
"2009-07-13 01:04:00",1057379,16.03,245.7,0.755,0.166,20.81,108.9627,22.23,23.21,38.25,0,111,13.17,23.06,207.7
"2009-07-13 01:04:30",1057380,16.41,246.7,0.703,0.203,20.76,108.9653,22.24,23.19,38.27,0,111,13.17,23.07,208.7
"2009-07-13 01:05:00",1057381,16.47,247,0.678,0.172,20.83,108.97,22.25,23.2,38.22,0,111,13.17,23.08,209.0
"2009-07-13 01:05:30",1057382,16.69,248.5,0.957,0.118,20.9,108.9755,22.26,23.19,38.14,0,111,13.17,23.09,210.5
"2009-07-13 01:06:00",1057383,16.43,249.4,0.407,0.151,20.91,108.9847,22.29,23.21,38.19,0,111,13.17,23.12,211.4
"2009-07-13 01:06:30",1057384,16.16,249.5,0.262,0.09,20.91,109.0031,22.33,23.21,38.34,0,111,13.17,23.16,211.5
"2009-07-13 01:07:00",1057385,16.27,248.6,0.658,0.173,20.95,109.0051,22.34,23.23,36.87,0,111,13.17,23.17,210.6
"2009-07-13 01:07:30",1057386,16.24,249.4,0.36,0.09,20.92,109.0051,22.34,23.24,36.3,0,111,13.17,23.17,211.4
"2009-07-13 01:08:00",1057387,16.47,249,0.751,0.099,20.95,109.0081,22.35,23.25,35.96,0,111,13.17,23.18,211.0
"2009-07-13 01:08:30",1057388,16.61,247.1,0.552,0.088,20.95,109.0171,22.37,23.28,35.81,0,111,13.18,23.20,209.1
"2009-07-13 01:09:00",1057389,15.77,246.6,1.103,0.318,21.02,109.0363,22.42,23.29,35.96,0,111,13.18,23.25,208.6
"2009-07-13 01:09:30",1057390,15.61,247.1,0.906,0.104,20.98,109.0388,22.43,23.31,35.52,0,111,13.18,23.26,209.1
"2009-07-13 01:10:00",1057391,15.51,249.1,0.979,0.153,20.97,109.043,22.44,23.33,35.31,0,111,13.18,23.27,211.1
"2009-07-13 01:10:30",1057392,15.68,249.5,0.509,0.143,20.98,109.0615,22.48,23.34,35.23,0,111,13.18,23.31,211.5
"2009-07-13 01:11:00",1057393,15.4,249,0.534,0.161,20.98,109.0722,22.51,23.37,34.81,0,111,13.18,23.34,211.0
"2009-07-13 01:11:30",1057394,15.13,249,0.526,0.141,20.94,109.0725,22.51,23.4,34.74,0,111,13.18,23.34,211.0
"2009-07-13 01:12:00",1057395,15.34,249.1,0.809,0.145,20.96,109.077,22.52,23.42,35.08,0,111,13.18,23.35,211.1
"2009-07-13 01:12:30",1057396,15.29,248.5,0.584,0.106,20.95,109.0911,22.56,23.43,35.11,0,111,13.18,23.39,210.5
"2009-07-13 01:13:00",1057397,15.46,249,0.602,0.083,20.99,109.1057,22.6,23.45,34.94,0,111,13.18,23.43,211.0
"2009-07-13 01:13:30",1057398,15.62,248.7,0.665,0.169,21,109.1062,22.6,23.48,34.71,0,111,13.18,23.43,210.7
"2009-07-13 01:14:00",1057399,15.52,248.5,0.598,0.235,20.97,109.1062,22.6,23.49,34.42,0,111,13.18,23.43,210.5
"2009-07-13 01:14:30",1057400,15.57,247.9,1.177,0.22,21.01,109.1119,22.61,23.5,34.36,0,111,13.18,23.44,209.9
"2009-07-13 01:15:00",1057401,15.72,248,1.473,0.253,21.06,109.1267,22.65,23.54,34.21,0,111,13.18,23.48,210.0
"2009-07-13 01:15:30",1057402,15.49,246.1,0.372,0.114,21.13,109.1377,22.68,23.57,34.29,0,111,13.18,23.51,208.1
"2009-07-13 01:16:00",1057403,15.18,246,0.377,0.122,21.16,109.14,22.69,23.57,34.17,0,111,13.18,23.52,208.0
"2009-07-13 01:16:30",1057404,14.87,245.8,0.424,0.086,21.24,109.1414,22.69,23.59,34.59,0,111,13.18,23.52,207.8
"2009-07-13 01:17:00",1057405,14.74,246.7,0.55,0.135,21.26,109.1571,22.73,23.62,34.61,0,111,13.18,23.56,208.7
"2009-07-13 01:17:30",1057406,14.84,247.6,1.463,0.236,21.29,109.1734,22.77,23.65,34.42,0,111,13.18,23.60,209.6
"2009-07-13 01:18:00",1057407,14.51,248.9,1.057,0.123,21.36,109.1754,22.78,23.67,34.35,0,111,13.19,23.61,210.9
"2009-07-13 01:18:30",1057408,14.6,248.6,1.137,0.437,21.36,109.1881,22.81,23.68,34.36,0,111,13.19,23.64,210.6
"2009-07-13 01:19:00",1057409,13.74,248.1,0.566,0.117,21.3,109.2069,22.86,23.71,34.31,0,111,13.19,23.69,210.1
"2009-07-13 01:19:30",1057410,13.49,247.2,0.456,0.18,21.33,109.2123,22.87,23.75,34.19,0,111,13.18,23.70,209.2
"2009-07-13 01:20:00",1057411,12.95,248.8,0.981,0.177,21.3,109.2378,22.94,23.78,33.87,0,111,13.17,23.77,210.8
"2009-07-13 01:20:30",1057412,12.49,249.8,0.594,0.174,21.35,109.2427,22.95,23.81,33.63,0,111,13.17,23.78,211.8
"2009-07-13 01:21:00",1057413,12.21,247.6,1.106,0.112,21.34,109.2494,22.97,23.83,33.37,0,111,13.17,23.80,209.6
"2009-07-13 01:21:30",1057414,11.94,246.5,0.62,0.143,21.34,109.2699,23.02,23.86,33.21,0,111,13.17,23.85,208.5
"2009-07-13 01:22:00",1057415,11.91,246.4,0.392,0.112,21.28,109.2786,23.04,23.88,33.04,0,111,13.17,23.87,208.4
"2009-07-13 01:22:30",1057416,11.84,246.3,0.439,0.123,21.18,109.2797,23.04,23.92,32.62,0,111,13.17,23.88,208.3
"2009-07-13 01:23:00",1057417,12.44,246.1,0.359,0.233,21.06,109.2899,23.07,23.96,32,0,111,13.17,23.90,208.1
"2009-07-13 01:23:30",1057418,12.49,245.9,0.48,0.094,21.04,109.31,23.12,23.95,31.76,0,111,13.17,23.95,207.9
"2009-07-13 01:24:00",1057419,11.97,244.7,0.974,0.192,21.13,109.3184,23.14,23.99,31.93,0,111,13.17,23.98,206.7
"2009-07-13 01:24:30",1057420,12.06,242.4,0.427,0.143,21.12,109.3178,23.14,24.02,31.79,0,111,13.18,23.97,204.4
"2009-07-13 01:25:00",1057421,12.31,243.5,0.769,0.174,21.05,109.3159,23.14,24.02,31.73,0,111,13.18,23.97,205.5
"2009-07-13 01:25:30",1057422,12.57,242.8,1.148,0.233,21.05,109.3233,23.16,24.05,31.59,0,111,13.18,23.99,204.8
"2009-07-13 01:26:00",1057423,12.55,240.7,0.512,0.119,21.23,109.3289,23.17,24.07,31.54,0,111,13.19,24.00,202.7
"2009-07-13 01:26:30",1057424,12.64,240.6,0.492,0.128,21.22,109.3388,23.2,24.09,31.55,0,111,13.19,24.03,202.6
"2009-07-13 01:27:00",1057425,12.46,239.8,0.788,0.134,21.21,109.3503,23.23,24.09,31.42,0,111,13.19,24.06,201.8
"2009-07-13 01:27:30",1057426,12.09,239.3,0.657,0.167,21.28,109.3522,23.23,24.11,31.51,0,111,13.19,24.06,201.3
"2009-07-13 01:28:00",1057427,12.05,239.7,0.57,0.131,21.32,109.3537,23.23,24.13,31.55,0,111,13.19,24.07,201.7
"2009-07-13 01:28:30",1057428,11.79,238.3,0.875,0.193,21.42,109.3528,23.23,24.15,31.57,0,111,13.19,24.07,200.3
"2009-07-13 01:29:00",1057429,11.5,241.1,2.52,0.341,21.6,109.3525,23.23,24.15,31.7,0,111,13.19,24.06,203.1
"2009-07-13 01:29:30",1057430,10.16,242.9,5.641,1.107,21.83,109.3502,23.23,24.17,31.35,0,111,13.19,24.06,204.9
"2009-07-13 01:30:00",1057431,9.91,243.7,2.731,0.948,21.86,109.3639,23.26,24.19,31.07,0,111,13.19,24.09,205.7
"2009-07-13 01:30:30",1057432,10.57,243.1,1.033,0.17,21.28,109.3865,23.32,24.2,31.28,0,111,13.19,24.15,205.1
"2009-07-13 01:31:00",1057433,11.01,240.4,1.399,0.144,21.24,109.3837,23.31,24.23,31.09,0,111,13.19,24.14,202.4
"2009-07-13 01:31:30",1057434,10.42,240.9,3.463,0.711,21.62,109.3885,23.32,24.24,31.05,0,111,13.19,24.16,202.9
"2009-07-13 01:32:00",1057435,9.51,245,2.277,1,21.72,109.4075,23.37,24.25,30.75,0,111,13.19,24.21,207.0
"2009-07-13 01:32:30",1057436,9.39,244.4,4.214,0.784,21.68,109.42,23.4,24.29,30.84,0,111,13.19,24.24,206.4
"2009-07-13 01:33:00",1057437,10.77,238.6,1.299,0.15,21.16,109.4221,23.41,24.31,31.06,0,111,13.19,24.24,200.6
"2009-07-13 01:33:30",1057438,10.71,237,1.004,0.14,21.21,109.4269,23.42,24.32,31.22,0,111,13.19,24.26,199.0
"2009-07-13 01:34:00",1057439,10.16,243.2,1.408,0.24,21.59,109.4334,23.44,24.33,30.92,0,111,13.19,24.27,205.2
"2009-07-13 01:34:30",1057440,9.72,246.1,1.507,0.128,21.64,109.4504,23.48,24.37,30.81,0,111,13.19,24.32,208.1
"2009-07-13 01:35:00",1057441,10.29,245.1,2.746,0.497,21.75,109.4568,23.5,24.37,30.76,0,111,13.19,24.33,207.1
"2009-07-13 01:35:30",1057442,10.26,246.5,2.616,0.377,21.64,109.4558,23.5,24.39,30.65,0,111,13.19,24.33,208.5
"2009-07-13 01:36:00",1057443,9.66,234.4,5.653,0.519,21.77,109.4592,23.51,24.42,30.56,0,111,13.19,24.34,196.4
"2009-07-13 01:36:30",1057444,9.2,239.5,6.1,0.815,21.89,109.4693,23.53,24.43,30.43,0,111,13.18,24.37,201.5
"2009-07-13 01:37:00",1057445,8.03,251.7,4.948,0.679,22.09,109.4935,23.59,24.46,30.1,0,111,13.18,24.43,213.7
"2009-07-13 01:37:30",1057446,7.678,247.8,10.33,0.613,22.24,109.4939,23.59,24.49,30.1,0,111,13.18,24.43,209.8
"2009-07-13 01:38:00",1057447,7.249,242.4,6.846,1.089,22.12,109.4991,23.61,24.5,29.84,0,111,13.17,24.44,204.4
"2009-07-13 01:38:30",1057448,8.35,236.3,1.18,0.13,21.53,109.5237,23.67,24.52,30.24,0,111,13.17,24.51,198.3
"2009-07-13 01:39:00",1057449,8.89,236.2,1.574,0.244,21.39,109.53,23.69,24.55,30.38,0,111,13.17,24.52,198.2
"2009-07-13 01:39:30",1057450,9.13,236,1.56,0.218,21.43,109.5294,23.69,24.56,30.39,0,111,13.17,24.52,198.0
"2009-07-13 01:40:00",1057451,9.05,233.6,4.619,0.568,21.55,109.5389,23.71,24.59,30.23,0,111,13.17,24.54,195.6
"2009-07-13 01:40:30",1057452,7.147,253.8,10.15,0.754,22.16,109.5568,23.76,24.6,29.87,0,111,13.17,24.59,215.8
"2009-07-13 01:41:00",1057453,8.46,244.4,3.407,0.719,21.61,109.561,23.77,24.63,30.01,0,111,13.17,24.60,206.4
"2009-07-13 01:41:30",1057454,8.7,245.1,12.83,0.76,21.81,109.5641,23.77,24.65,29.81,0,111,13.18,24.61,207.1
"2009-07-13 01:42:00",1057455,8.6,236,4.233,0.98,21.59,109.5682,23.79,24.68,29.93,0,111,13.18,24.62,198.0
"2009-07-13 01:42:30",1057456,8.34,239.7,4.325,0.681,21.7,109.58,23.82,24.69,29.63,0,111,13.19,24.65,201.7
"2009-07-13 01:43:00",1057457,6.253,246.1,8.35,1.193,21.79,109.5917,23.85,24.72,29.61,0,111,13.19,24.68,208.1
"2009-07-13 01:43:30",1057458,7.063,242.1,9.76,1.239,21.74,109.5932,23.85,24.73,29.32,0,111,13.19,24.68,204.1
"2009-07-13 01:44:00",1057459,7.744,241.5,4.914,0.511,21.66,109.5975,23.86,24.77,29.45,0,111,13.19,24.70,203.5
"2009-07-13 01:44:30",1057460,7.128,241.7,4.286,0.582,22.01,109.6155,23.91,24.78,29.17,0,111,13.19,24.74,203.7
"2009-07-13 01:45:00",1057461,5.906,248.1,5.278,1.136,22.28,109.6205,23.92,24.79,28.82,0,111,13.19,24.75,210.1
"2009-07-13 01:45:30",1057462,5.64,244.4,6.93,0.431,22.33,109.622,23.92,24.82,28.64,0,111,13.19,24.76,206.4
"2009-07-13 01:46:00",1057463,5.806,236.4,3.599,0.827,22.33,109.6452,23.98,24.84,28.63,0,111,13.19,24.82,198.4
"2009-07-13 01:46:30",1057464,4.691,228.4,7.254,0.748,22.24,109.6517,24,24.87,28.59,0,111,13.19,24.84,190.4
"2009-07-13 01:47:00",1057465,6.786,231.3,1.887,0.269,21.57,109.6639,24.03,24.91,29.02,0,111,13.19,24.87,193.3
"2009-07-13 01:47:30",1057466,7.461,231.8,3.494,0.33,21.63,109.6807,24.07,24.93,29.14,0,111,13.19,24.91,193.8
"2009-07-13 01:48:00",1057467,6.717,235.5,3.431,0.514,22.08,109.6814,24.08,24.98,28.94,0,111,13.19,24.91,197.5